#�ϑ�����,���ϕ���,���ϕ���,�ő啗��,�ő啗����������,�ő�u�ԕ���,�ő�u�ԕ�����������
#(�N����),(m/s)   ,(16����),(m/s)   ,(16����)        ,(m/s)       ,(16����)            
2018/3/10 0:01,6.2,16,6.3,16,9,16
2018/3/10 0:02,6,16,6.2,16,7.8,16
2018/3/10 0:03,5.8,16,6,16,10.8,16
2018/3/10 0:04,5.8,16,5.9,16,12.8,15
2018/3/10 0:05,5.3,16,5.7,16,5.5,16
2018/3/10 0:06,5.3,16,5.4,16,10.8,16
2018/3/10 0:07,5.3,16,5.3,16,7.2,16
2018/3/10 0:08,5.1,16,5.2,16,10,16
2018/3/10 0:09,5.1,16,5.2,16,12.3,15
2018/3/10 0:10,5.3,16,5.3,16,11.5,16
2018/3/10 0:11,5.4,16,5.4,16,12.4,16
2018/3/10 0:12,5.7,16,5.7,16,10.8,15
2018/3/10 0:13,5.4,16,5.7,16,9.1,16
2018/3/10 0:14,5.1,16,5.3,16,6.9,16
2018/3/10 0:15,5.4,16,5.4,16,10,15
2018/3/10 0:16,5.3,16,5.4,16,6.4,14
2018/3/10 0:17,5.3,16,5.3,16,8.6,2
2018/3/10 0:18,5.1,16,5.3,16,4.4,15
2018/3/10 0:19,4.5,16,5,16,2.5,15
2018/3/10 0:20,4,15,4.5,16,3.1,15
2018/3/10 0:21,3.4,15,3.9,16,2.9,14
2018/3/10 0:22,2.9,15,3.3,16,1.1,2
2018/3/10 0:23,2.5,15,2.8,16,1.3,14
2018/3/10 0:24,2.3,15,2.5,16,2.7,1
2018/3/10 0:25,2.1,15,2.3,16,4.7,16
2018/3/10 0:26,1.9,15,2,16,4.9,15
2018/3/10 0:27,1.7,15,1.8,16,4.3,16
2018/3/10 0:28,1.9,15,1.9,16,5.6,16
2018/3/10 0:29,2.1,15,2.1,16,5,14
2018/3/10 0:30,2.5,16,2.5,15,10.7,16
2018/3/10 0:31,3,16,3,15,11.7,16
2018/3/10 0:32,3.6,16,3.6,16,10.7,16
2018/3/10 0:33,3.9,16,3.9,16,5.6,16
2018/3/10 0:34,4,16,4,16,9.8,16
2018/3/10 0:35,4.2,16,4.3,16,10.2,1
2018/3/10 0:36,4.4,16,4.4,16,7.6,14
2018/3/10 0:37,4.6,16,4.6,16,6.8,1
2018/3/10 0:38,4.6,16,4.7,16,7.1,16
2018/3/10 0:39,4.5,16,4.6,16,3.1,1
2018/3/10 0:40,4,16,4.4,16,4.9,15
2018/3/10 0:41,3.8,16,4.1,16,10.6,16
2018/3/10 0:42,3.7,16,3.8,16,9,16
2018/3/10 0:43,4,16,4,16,10.9,15
2018/3/10 0:44,4.4,16,4.4,16,9.3,14
2018/3/10 0:45,4.6,16,4.6,16,10.3,16
2018/3/10 0:46,4.6,16,4.6,16,7.2,15
2018/3/10 0:47,4.4,16,4.5,16,4.3,15
2018/3/10 0:48,4.5,16,4.5,16,8.5,16
2018/3/10 0:49,4.8,16,4.8,16,9,13
2018/3/10 0:50,5,15,5,15,6.4,14
2018/3/10 0:51,5,15,5,15,8.2,15
2018/3/10 0:52,5.1,15,5.1,15,10.9,16
2018/3/10 0:53,5.1,15,5.1,15,11.6,13
2018/3/10 0:54,5,15,5.1,15,9.4,14
2018/3/10 0:55,4.7,15,5,15,11.5,1
2018/3/10 0:56,4.9,15,4.9,15,11.7,16
2018/3/10 0:57,5.1,15,5.1,15,11.6,16
2018/3/10 0:58,5.4,15,5.4,15,12.8,1
2018/3/10 0:59,5.8,15,5.8,15,14,16
2018/3/10 1:00,5.8,15,5.8,15,7.5,16
2018/3/10 1:01,5.8,15,5.9,15,9.5,15
2018/3/10 1:02,6,15,6,15,13,15
2018/3/10 1:03,6.3,16,6.3,16,12.4,16
2018/3/10 1:04,6.3,16,6.4,16,11.8,16
2018/3/10 1:05,6.2,16,6.3,16,6.9,1
2018/3/10 1:06,5.8,16,6.2,16,2.4,1
2018/3/10 1:07,5.6,16,5.7,16,7.2,1
2018/3/10 1:08,5.3,16,5.6,16,7.8,2
2018/3/10 1:09,5.2,16,5.2,16,11.8,15
2018/3/10 1:10,5.2,16,5.3,16,9.5,15
2018/3/10 1:11,5.1,16,5.1,16,6.2,14
2018/3/10 1:12,4.8,16,5.1,16,9.9,16
2018/3/10 1:13,4.4,16,4.8,16,7.5,16
2018/3/10 1:14,4.2,16,4.3,16,6.5,16
2018/3/10 1:15,4.2,16,4.2,16,6.7,16
2018/3/10 1:16,4.4,16,4.4,16,7.7,15
2018/3/10 1:17,4.6,16,4.6,16,7.8,1
2018/3/10 1:18,4.6,16,4.6,16,10.7,15
2018/3/10 1:19,4.4,16,4.7,16,9.4,16
2018/3/10 1:20,4.7,16,4.7,16,12.8,16
2018/3/10 1:21,4.6,16,4.7,16,8.7,15
2018/3/10 1:22,4.5,16,4.7,16,10.8,16
2018/3/10 1:23,4.7,16,4.8,16,11.9,1
2018/3/10 1:24,4.5,16,4.6,16,3.9,15
2018/3/10 1:25,4.5,16,4.5,16,7.5,16
2018/3/10 1:26,4.5,16,4.5,16,7,15
2018/3/10 1:27,4.8,15,4.8,16,13.4,15
2018/3/10 1:28,4.9,15,5,15,10.7,15
2018/3/10 1:29,4.9,15,4.9,15,10.9,15
2018/3/10 1:30,4.9,15,5.1,15,10.7,16
2018/3/10 1:31,4.7,15,4.9,15,6.3,1
2018/3/10 1:32,4.4,15,4.7,15,3.9,16
2018/3/10 1:33,4.3,15,4.3,15,5.8,2
2018/3/10 1:34,4.5,15,4.5,15,7,15
2018/3/10 1:35,4.5,15,4.5,15,7.7,16
2018/3/10 1:36,4.4,15,4.5,15,6.1,15
2018/3/10 1:37,4.1,15,4.4,15,11.1,15
2018/3/10 1:38,4,15,4.1,15,10.1,16
2018/3/10 1:39,3.7,15,4,15,4.2,1
2018/3/10 1:40,3.6,15,3.7,15,7.5,15
2018/3/10 1:41,3.8,15,3.8,15,7.2,16
2018/3/10 1:42,3.9,15,3.9,15,5.5,16
2018/3/10 1:43,3.8,15,3.9,15,7,13
2018/3/10 1:44,3.8,15,3.8,15,6.3,16
2018/3/10 1:45,3.9,15,3.9,15,6.3,15
2018/3/10 1:46,4,15,4,15,8.1,16
2018/3/10 1:47,3.9,15,4.1,15,6.8,15
2018/3/10 1:48,3.9,15,3.9,15,9,16
2018/3/10 1:49,4.1,15,4.1,15,9.2,16
2018/3/10 1:50,4.1,15,4.2,15,8.1,16
2018/3/10 1:51,4.5,15,4.5,15,11,15
2018/3/10 1:52,4.6,15,4.6,15,9.5,15
2018/3/10 1:53,4.7,16,4.7,16,7.4,1
2018/3/10 1:54,4.5,15,4.7,16,4.2,15
2018/3/10 1:55,4.3,15,4.5,16,7.6,12
2018/3/10 1:56,4.2,15,4.3,16,3.8,12
2018/3/10 1:57,4.3,15,4.3,16,8.1,15
2018/3/10 1:58,4.3,15,4.4,16,7.4,16
2018/3/10 1:59,4.2,15,4.2,16,6.1,16
2018/3/10 2:00,4.3,15,4.3,16,9.8,16
2018/3/10 2:01,4.3,15,4.4,16,10.5,15
2018/3/10 2:02,4.3,15,4.3,16,8.9,16
2018/3/10 2:03,4.6,15,4.6,15,12.1,16
2018/3/10 2:04,4.7,15,4.7,15,6.2,1
2018/3/10 2:05,4.7,15,4.7,15,5.5,15
2018/3/10 2:06,5,15,5,15,8.7,1
2018/3/10 2:07,4.9,15,5,15,6.8,1
2018/3/10 2:08,4.7,15,4.8,15,5.1,15
2018/3/10 2:09,4.7,15,4.7,15,6.9,15
2018/3/10 2:10,4.6,15,4.8,15,7.1,16
2018/3/10 2:11,4.3,15,4.5,15,7.9,15
2018/3/10 2:12,4.4,15,4.4,15,9.8,16
2018/3/10 2:13,4.1,15,4.4,15,7.7,16
2018/3/10 2:14,4.2,15,4.2,15,8.2,15
2018/3/10 2:15,4.3,15,4.3,15,7.5,1
2018/3/10 2:16,4.1,15,4.2,15,7.8,1
2018/3/10 2:17,4.1,15,4.1,15,7,16
2018/3/10 2:18,4.4,15,4.4,15,8.5,15
2018/3/10 2:19,4.5,15,4.5,15,8.3,16
2018/3/10 2:20,4.7,16,4.7,16,13.9,16
2018/3/10 2:21,5.2,16,5.2,16,14,15
2018/3/10 2:22,5.1,16,5.2,16,9.3,16
2018/3/10 2:23,5.2,16,5.2,16,6.3,15
2018/3/10 2:24,5.2,16,5.3,16,6.8,1
2018/3/10 2:25,5.1,16,5.2,16,5.7,1
2018/3/10 2:26,5.1,16,5.1,16,8.5,1
2018/3/10 2:27,5.2,16,5.3,16,6.5,15
2018/3/10 2:28,4.8,16,5.2,16,4.5,15
2018/3/10 2:29,4.6,16,4.8,16,6.1,1
2018/3/10 2:30,4.5,16,4.7,16,7.9,16
2018/3/10 2:31,4.3,16,4.4,16,10.8,16
2018/3/10 2:32,4.6,16,4.6,16,11.6,16
2018/3/10 2:33,4.6,16,4.7,16,8.4,1
2018/3/10 2:34,4.9,16,4.9,16,8.7,15
2018/3/10 2:35,5,16,5,16,7.5,16
2018/3/10 2:36,5,16,5.1,16,6.2,15
2018/3/10 2:37,5.1,16,5.1,16,9.4,16
2018/3/10 2:38,5,16,5.1,16,4.2,16
2018/3/10 2:39,4.9,16,5.1,16,4.7,16
2018/3/10 2:40,4.5,16,4.9,16,3.3,16
2018/3/10 2:41,4.2,16,4.5,16,7.8,16
2018/3/10 2:42,3.7,16,4.1,16,6.1,15
2018/3/10 2:43,3.7,16,3.7,16,8.1,15
2018/3/10 2:44,3.7,15,3.7,16,12.8,15
2018/3/10 2:45,3.9,15,3.9,16,12.7,16
2018/3/10 2:46,4.4,15,4.4,16,10.8,16
2018/3/10 2:47,4.5,16,4.5,16,10.3,16
2018/3/10 2:48,4.8,16,4.8,16,9.1,16
2018/3/10 2:49,5,16,5,16,7.1,16
2018/3/10 2:50,5.7,16,5.7,16,12.3,15
2018/3/10 2:51,5.8,16,5.8,16,7.1,16
2018/3/10 2:52,6.1,16,6.1,16,11.3,16
2018/3/10 2:53,6.3,16,6.3,16,9.4,16
2018/3/10 2:54,6.3,16,6.4,16,9.1,15
2018/3/10 2:55,6,16,6.1,16,7.7,16
2018/3/10 2:56,5.6,16,5.9,16,7.6,16
2018/3/10 2:57,5.5,16,5.6,16,13,16
2018/3/10 2:58,5.5,16,5.5,16,10.6,16
2018/3/10 2:59,5.4,16,5.6,16,6.5,16
2018/3/10 3:00,4.8,16,5.4,16,4.2,16
2018/3/10 3:01,4.4,16,4.7,16,2.6,16
2018/3/10 3:02,4.1,16,4.3,16,6,1
2018/3/10 3:03,3.9,16,4.1,16,7.9,1
2018/3/10 3:04,3.8,16,3.9,16,9.2,1
2018/3/10 3:05,3.8,16,3.9,16,7.4,2
2018/3/10 3:06,4,16,4,16,8.4,15
2018/3/10 3:07,3.9,16,4,16,7.8,16
2018/3/10 3:08,3.9,16,4,16,7.4,15
2018/3/10 3:09,4.1,16,4.1,16,6.7,16
2018/3/10 3:10,4.3,16,4.3,16,5.4,15
2018/3/10 3:11,4.6,16,4.6,16,9,16
2018/3/10 3:12,4.9,16,4.9,16,11.1,16
2018/3/10 3:13,4.9,16,4.9,16,11.5,16
2018/3/10 3:14,5.3,16,5.3,16,11.8,1
2018/3/10 3:15,5.5,16,5.5,16,9.4,16
2018/3/10 3:16,5.3,16,5.5,16,6,15
2018/3/10 3:17,5.1,16,5.3,16,5.1,16
2018/3/10 3:18,5.1,16,5.1,16,7,14
2018/3/10 3:19,5.2,16,5.2,16,12.3,16
2018/3/10 3:20,5.3,16,5.3,16,8.4,1
2018/3/10 3:21,5.3,16,5.3,16,8.7,16
2018/3/10 3:22,5.3,16,5.3,16,10.1,16
2018/3/10 3:23,5.3,16,5.3,16,10,16
2018/3/10 3:24,5,16,5.2,16,9.1,15
2018/3/10 3:25,5,16,5,16,10.2,16
2018/3/10 3:26,5.2,16,5.2,16,8.9,16
2018/3/10 3:27,5.3,16,5.3,16,8.2,15
2018/3/10 3:28,5.3,16,5.3,16,6.4,1
2018/3/10 3:29,5.2,16,5.3,16,9.5,16
2018/3/10 3:30,5.1,16,5.2,16,9.9,16
2018/3/10 3:31,5.2,15,5.2,16,10.8,14
2018/3/10 3:32,5.2,15,5.3,16,9.4,15
2018/3/10 3:33,5.4,16,5.4,15,11.5,15
2018/3/10 3:34,5.2,16,5.4,15,7.2,1
2018/3/10 3:35,5.1,15,5.2,15,9.8,15
2018/3/10 3:36,5,15,5.1,15,10.5,16
2018/3/10 3:37,5.1,15,5.1,15,9.7,16
2018/3/10 3:38,5.2,15,5.2,15,10.5,16
2018/3/10 3:39,5.1,16,5.3,15,7.2,15
2018/3/10 3:40,5.3,16,5.3,15,8.3,16
2018/3/10 3:41,5.4,16,5.4,15,9.8,16
2018/3/10 3:42,5.3,16,5.4,15,9.8,16
2018/3/10 3:43,5.1,16,5.3,16,9.5,16
2018/3/10 3:44,5.3,16,5.3,16,10.1,15
2018/3/10 3:45,5.3,16,5.3,16,9.2,15
2018/3/10 3:46,5.3,16,5.4,16,7.7,16
2018/3/10 3:47,5.2,16,5.2,16,5.6,15
2018/3/10 3:48,5,16,5.2,16,5.6,15
2018/3/10 3:49,4.9,16,4.9,16,6.3,16
2018/3/10 3:50,5,16,5,16,10,16
2018/3/10 3:51,5.1,16,5.1,16,11.5,16
2018/3/10 3:52,5.1,16,5.2,16,9.2,16
2018/3/10 3:53,5.2,16,5.2,16,8.1,14
2018/3/10 3:54,4.8,15,5.2,16,3.8,13
2018/3/10 3:55,4.3,15,4.8,16,1.3,10
2018/3/10 3:56,4,15,4.2,16,4.9,11
2018/3/10 3:57,4.1,15,4.1,16,6.4,12
2018/3/10 3:58,4.1,15,4.1,16,8.3,16
2018/3/10 3:59,4.3,15,4.3,16,8.2,16
2018/3/10 4:00,3.9,15,4.2,16,6.9,15
2018/3/10 4:01,3.7,15,3.9,16,10.6,15
2018/3/10 4:02,3.6,15,3.7,16,8.3,14
2018/3/10 4:03,3.5,15,3.6,16,8.9,15
2018/3/10 4:04,3.7,15,3.7,15,9.2,16
2018/3/10 4:05,4,15,4,15,9.8,15
2018/3/10 4:06,4.2,15,4.2,15,5.2,2
2018/3/10 4:07,4.1,16,4.1,15,6.9,15
2018/3/10 4:08,4,16,4.1,15,7.4,16
2018/3/10 4:09,4,16,4,15,15.7,15
2018/3/10 4:10,4.4,16,4.4,16,14,16
2018/3/10 4:11,4.2,16,4.3,16,10,16
2018/3/10 4:12,4.4,16,4.4,16,14.5,1
2018/3/10 4:13,4.6,16,4.6,16,14.9,16
2018/3/10 4:14,4.6,16,4.6,16,7.4,16
2018/3/10 4:15,4.6,16,4.6,16,10.3,15
2018/3/10 4:16,5,16,5,16,14.1,15
2018/3/10 4:17,5.2,16,5.2,16,13.9,16
2018/3/10 4:18,5.6,16,5.6,16,12.5,15
2018/3/10 4:19,5.7,16,5.7,16,9.3,15
2018/3/10 4:20,5.4,16,5.7,16,5.6,15
2018/3/10 4:21,5.5,16,5.5,16,8.5,14
2018/3/10 4:22,5.2,16,5.6,16,10.5,1
2018/3/10 4:23,4.9,16,5.2,16,6.5,1
2018/3/10 4:24,5.1,16,5.1,16,9.4,16
2018/3/10 4:25,4.9,16,5,16,4.4,16
2018/3/10 4:26,4.5,16,4.8,16,4.2,2
2018/3/10 4:27,4.4,16,4.5,16,7.7,15
2018/3/10 4:28,3.9,16,4.4,16,4.2,1
2018/3/10 4:29,3.7,16,3.9,16,5.2,1
2018/3/10 4:30,3.7,16,3.7,16,12.5,16
2018/3/10 4:31,3.7,16,3.8,16,7,13
2018/3/10 4:32,3.6,16,3.6,16,9,15
2018/3/10 4:33,3.7,15,3.8,16,8.7,14
2018/3/10 4:34,3.3,15,3.6,16,2.7,13
2018/3/10 4:35,3.2,15,3.3,16,4.2,1
2018/3/10 4:36,3.6,15,3.6,16,12.2,16
2018/3/10 4:37,3.8,15,3.8,16,11.7,16
2018/3/10 4:38,4.5,15,4.5,15,19.7,16
2018/3/10 4:39,4.7,15,4.7,15,12.6,16
2018/3/10 4:40,4.8,15,4.9,15,11.5,16
2018/3/10 4:41,5.3,15,5.3,15,13.3,15
2018/3/10 4:42,5.8,15,5.8,15,16,16
2018/3/10 4:43,6,15,6,15,10,16
2018/3/10 4:44,6.2,16,6.2,16,6.9,16
2018/3/10 4:45,6.6,16,6.6,16,10.2,16
2018/3/10 4:46,6.5,16,6.6,16,9.5,16
2018/3/10 4:47,6.6,16,6.7,16,11.9,15
2018/3/10 4:48,6.3,16,6.6,16,10.8,16
2018/3/10 4:49,6.4,16,6.4,16,10,16
2018/3/10 4:50,6.3,16,6.4,16,8.9,15
2018/3/10 4:51,6.1,16,6.4,16,11.3,15
2018/3/10 4:52,5.9,16,6,16,15.3,16
2018/3/10 4:53,6,16,6,16,9.9,1
2018/3/10 4:54,6,16,6,16,8.2,15
2018/3/10 4:55,5.8,16,5.9,16,5.8,16
2018/3/10 4:56,5.5,15,5.7,16,7.2,14
2018/3/10 4:57,5.2,15,5.5,16,5.7,12
2018/3/10 4:58,5.3,15,5.3,16,11.6,15
2018/3/10 4:59,5.2,15,5.4,16,12.6,16
2018/3/10 5:00,5.3,15,5.3,16,13.4,15
2018/3/10 5:01,5.4,15,5.5,16,14.4,14
2018/3/10 5:02,5,16,5.4,16,6.3,1
2018/3/10 5:03,4.8,15,4.9,16,9.9,15
2018/3/10 5:04,4.7,15,4.8,16,4.9,1
2018/3/10 5:05,4.6,15,4.7,16,8.2,15
2018/3/10 5:06,4.7,15,4.8,15,10.2,16
2018/3/10 5:07,4.6,15,4.7,15,4.4,14
2018/3/10 5:08,4.7,15,4.8,15,12.7,15
2018/3/10 5:09,4.8,15,4.8,15,11,16
2018/3/10 5:10,4.4,15,4.8,15,4.3,15
2018/3/10 5:11,4.1,15,4.3,15,7.6,14
2018/3/10 5:12,3.9,15,4.1,16,3.1,1
2018/3/10 5:13,4.1,15,4.1,15,13.2,16
2018/3/10 5:14,4.4,15,4.4,15,10,15
2018/3/10 5:15,4.5,15,4.5,15,9.1,15
2018/3/10 5:16,4.4,15,4.6,15,7.8,15
2018/3/10 5:17,4.4,15,4.5,15,5.4,4
2018/3/10 5:18,3.7,15,4.3,15,4.7,1
2018/3/10 5:19,3.5,15,3.7,15,9.4,15
2018/3/10 5:20,3.6,15,3.7,15,6.9,14
2018/3/10 5:21,3.7,15,3.7,15,8.9,13
2018/3/10 5:22,3.9,15,3.9,15,6.4,13
2018/3/10 5:23,3.3,15,3.9,15,3.2,16
2018/3/10 5:24,3.3,15,3.3,15,8.5,16
2018/3/10 5:25,3.2,15,3.3,15,7.6,16
2018/3/10 5:26,3.3,15,3.3,15,12.1,15
2018/3/10 5:27,3.7,15,3.7,15,8.9,15
2018/3/10 5:28,4,15,4,15,8.7,16
2018/3/10 5:29,4,15,4.1,15,7.7,14
2018/3/10 5:30,4.1,15,4.1,15,8.6,15
2018/3/10 5:31,4.2,15,4.2,15,10.1,1
2018/3/10 5:32,4.6,16,4.6,16,14,16
2018/3/10 5:33,5,16,5,16,10.3,16
2018/3/10 5:34,5.1,16,5.1,16,9.8,1
2018/3/10 5:35,5.4,16,5.4,16,11.3,15
2018/3/10 5:36,5.3,16,5.5,16,6,1
2018/3/10 5:37,4.9,16,5.3,16,3.3,16
2018/3/10 5:38,4.8,16,4.9,16,10.6,15
2018/3/10 5:39,4.8,16,4.8,16,6.7,15
2018/3/10 5:40,4.7,16,4.8,16,9.3,16
2018/3/10 5:41,4.4,16,4.7,16,5,15
2018/3/10 5:42,4.3,16,4.4,16,11.3,15
2018/3/10 5:43,4,16,4.2,16,7.8,14
2018/3/10 5:44,3.8,16,3.9,16,6.5,16
2018/3/10 5:45,3.4,16,3.7,16,5.8,16
2018/3/10 5:46,3.6,16,3.6,16,9.8,15
2018/3/10 5:47,3.9,16,3.9,16,11.6,15
2018/3/10 5:48,4.1,16,4.1,16,10.8,14
2018/3/10 5:49,4.5,16,4.5,16,12.4,15
2018/3/10 5:50,4.8,16,4.8,16,10.6,16
2018/3/10 5:51,4.9,16,4.9,16,6.7,1
2018/3/10 5:52,4.7,16,4.9,16,6.2,15
2018/3/10 5:53,4.6,16,4.6,16,5.5,15
2018/3/10 5:54,4.7,16,4.7,16,7.4,15
2018/3/10 5:55,4.8,16,4.8,16,8.5,15
2018/3/10 5:56,4.9,16,4.9,16,8.1,15
2018/3/10 5:57,4.8,16,5,16,7.2,16
2018/3/10 5:58,4.5,16,4.8,16,4.5,15
2018/3/10 5:59,4,16,4.5,16,3.3,16
2018/3/10 6:00,3.5,16,4,16,2.7,13
2018/3/10 6:01,3.2,16,3.4,16,1.8,7
2018/3/10 6:02,3,16,3.2,16,2.6,8
2018/3/10 6:03,2.9,16,3,16,2.7,8
2018/3/10 6:04,2.5,16,2.8,16,1.9,16
2018/3/10 6:05,2.4,16,2.5,16,5.5,15
2018/3/10 6:06,2.1,16,2.4,16,6,15
2018/3/10 6:07,1.8,16,2,16,3.2,1
2018/3/10 6:08,1.8,16,1.8,16,4.9,1
2018/3/10 6:09,1.7,16,1.8,16,2.6,15
2018/3/10 6:10,1.6,16,1.7,16,1.3,5
2018/3/10 6:11,1.7,16,1.7,16,3.8,16
2018/3/10 6:12,1.8,1,1.8,16,3.1,4
2018/3/10 6:13,1.6,16,1.8,16,0.9,1
2018/3/10 6:14,1.7,16,1.7,16,3.1,14
2018/3/10 6:15,1.4,1,1.7,16,1.3,2
2018/3/10 6:16,1.4,1,1.4,16,2.2,3
2018/3/10 6:17,1.3,2,1.4,16,1.5,14
2018/3/10 6:18,1.3,2,1.3,16,4.4,1
2018/3/10 6:19,1.5,1,1.5,16,7,16
2018/3/10 6:20,1.7,16,1.7,16,7,15
2018/3/10 6:21,1.7,16,1.8,16,5.1,16
2018/3/10 6:22,2,15,2,16,7.4,16
2018/3/10 6:23,2.6,15,2.6,15,9.5,15
2018/3/10 6:24,2.7,16,2.7,15,6.4,16
2018/3/10 6:25,2.8,16,2.8,15,2.9,16
2018/3/10 6:26,2.7,15,2.8,15,2,4
2018/3/10 6:27,2.7,16,2.7,15,2.1,4
2018/3/10 6:28,2.6,16,2.7,15,1.3,2
2018/3/10 6:29,2.3,16,2.6,15,2,11
2018/3/10 6:30,2.2,16,2.3,15,3.1,16
2018/3/10 6:31,2.2,16,2.2,15,4.4,15
2018/3/10 6:32,2.1,1,2.2,15,3.6,1
2018/3/10 6:33,1.7,1,2,15,3.6,16
2018/3/10 6:34,1.5,1,1.7,15,2.6,16
2018/3/10 6:35,1.6,1,1.6,16,4.4,3
2018/3/10 6:36,1.8,1,1.8,15,4.4,3
2018/3/10 6:37,1.9,1,1.9,16,3.1,15
2018/3/10 6:38,2.1,1,2.1,16,5.4,1
2018/3/10 6:39,2.2,1,2.2,16,2.9,14
2018/3/10 6:40,2.2,1,2.2,16,3.2,16
2018/3/10 6:41,2.1,1,2.2,16,8.3,2
2018/3/10 6:42,2.4,1,2.4,1,7.8,2
2018/3/10 6:43,2.5,1,2.5,1,3.8,3
2018/3/10 6:44,2.6,2,2.6,2,3.9,2
2018/3/10 6:45,2.5,1,2.6,2,5.4,2
2018/3/10 6:46,2.5,1,2.5,2,4.3,1
2018/3/10 6:47,2.5,1,2.5,2,4.1,2
2018/3/10 6:48,2.4,1,2.5,2,3.7,16
2018/3/10 6:49,2.5,1,2.5,2,3,16
2018/3/10 6:50,2.5,1,2.5,2,3.3,16
2018/3/10 6:51,2.4,1,2.5,2,3.3,2
2018/3/10 6:52,1.9,1,2.3,2,1.3,10
2018/3/10 6:53,1.7,16,1.9,2,1.5,8
2018/3/10 6:54,1.6,16,1.7,2,1.6,10
2018/3/10 6:55,1.4,15,1.5,1,0.5,14
2018/3/10 6:56,1.1,15,1.4,1,0.4,16
2018/3/10 6:57,1,15,1.1,1,1.3,6
2018/3/10 6:58,0.9,15,1,1,2.6,4
2018/3/10 6:59,1,1,1,1,2.7,4
2018/3/10 7:00,0.9,5,1,1,1.8,4
2018/3/10 7:01,0.9,5,0.9,1,3.3,13
2018/3/10 7:02,1.1,4,1.1,1,4.1,13
2018/3/10 7:03,1.1,3,1.1,16,2.1,4
2018/3/10 7:04,1.2,2,1.2,16,2.6,1
2018/3/10 7:05,1.4,3,1.4,15,2.5,16
2018/3/10 7:06,1.5,3,1.5,3,2,3
2018/3/10 7:07,1.5,3,1.5,3,2.5,4
2018/3/10 7:08,1.6,3,1.6,3,3.5,6
2018/3/10 7:09,1.6,3,1.6,3,3.2,4
2018/3/10 7:10,1.5,3,1.6,3,1.5,2
2018/3/10 7:11,1.6,3,1.6,3,3.2,2
2018/3/10 7:12,1.5,3,1.6,3,3.5,3
2018/3/10 7:13,1.5,3,1.6,3,1.9,5
2018/3/10 7:14,1.6,3,1.6,3,3.7,3
2018/3/10 7:15,1.6,3,1.6,3,2.7,3
2018/3/10 7:16,1.7,3,1.7,3,3,3
2018/3/10 7:17,1.7,3,1.7,3,1.8,3
2018/3/10 7:18,1.6,2,1.7,3,3.1,1
2018/3/10 7:19,1.6,2,1.6,3,1.9,16
2018/3/10 7:20,1.6,2,1.6,3,1.3,2
2018/3/10 7:21,1.4,2,1.6,3,1.1,3
2018/3/10 7:22,1.3,2,1.4,3,2.2,2
2018/3/10 7:23,1.3,2,1.3,3,1.8,3
2018/3/10 7:24,1.3,2,1.3,3,3.6,3
2018/3/10 7:25,1.3,2,1.3,3,2.7,1
2018/3/10 7:26,1.2,2,1.3,3,2,2
2018/3/10 7:27,1.2,2,1.2,3,2.9,3
2018/3/10 7:28,1.1,2,1.2,2,1.3,5
2018/3/10 7:29,1.1,2,1.1,2,5.5,15
2018/3/10 7:30,1.2,2,1.2,2,3.5,15
2018/3/10 7:31,1.2,2,1.2,2,1,2
2018/3/10 7:32,1.1,2,1.2,2,1,1
2018/3/10 7:33,1,2,1.1,2,1.4,12
2018/3/10 7:34,0.9,1,1,2,1.6,12
2018/3/10 7:35,0.9,1,1,2,4.1,15
2018/3/10 7:36,1.1,1,1.1,2,5,15
2018/3/10 7:37,1.2,16,1.2,2,3.7,16
2018/3/10 7:38,1.4,16,1.4,16,3.9,16
2018/3/10 7:39,1.5,16,1.5,16,3.3,16
2018/3/10 7:40,1.4,16,1.4,16,1.6,16
2018/3/10 7:41,1.5,16,1.5,16,2.2,16
2018/3/10 7:42,1.6,16,1.6,16,2,1
2018/3/10 7:43,1.7,16,1.7,16,2.9,3
2018/3/10 7:44,1.8,1,1.8,1,2.2,2
2018/3/10 7:45,1.7,1,1.8,1,1.5,5
2018/3/10 7:46,1.6,2,1.7,1,2.9,5
2018/3/10 7:47,1.7,3,1.7,1,5,5
2018/3/10 7:48,1.9,3,1.9,3,7.6,3
2018/3/10 7:49,2.1,3,2.1,3,7.1,3
2018/3/10 7:50,2.3,3,2.3,3,3.8,3
2018/3/10 7:51,2.3,3,2.3,3,3.7,3
2018/3/10 7:52,2.4,3,2.4,3,3.5,1
2018/3/10 7:53,2.4,3,2.4,3,3,2
2018/3/10 7:54,2.5,3,2.5,3,4.3,1
2018/3/10 7:55,2.6,3,2.6,3,4.7,1
2018/3/10 7:56,2.8,3,2.8,3,5.5,4
2018/3/10 7:57,2.8,2,2.8,3,6.1,4
2018/3/10 7:58,2.6,2,2.7,3,4.5,2
2018/3/10 7:59,2.4,2,2.5,3,4.4,2
2018/3/10 8:00,2.3,2,2.4,3,3.8,16
2018/3/10 8:01,2.3,2,2.3,3,3.8,3
2018/3/10 8:02,2.3,2,2.3,3,3.3,3
2018/3/10 8:03,2.4,2,2.4,3,3.5,2
2018/3/10 8:04,2.5,2,2.5,3,6.1,16
2018/3/10 8:05,2.5,2,2.6,3,5.2,1
2018/3/10 8:06,2.4,2,2.5,3,3.1,3
2018/3/10 8:07,2.4,2,2.4,2,4.3,2
2018/3/10 8:08,2.4,2,2.4,2,4.1,1
2018/3/10 8:09,2.5,2,2.5,2,5.4,3
2018/3/10 8:10,2.6,2,2.6,2,5.4,3
2018/3/10 8:11,2.6,2,2.6,2,4.4,3
2018/3/10 8:12,2.7,2,2.7,2,5,3
2018/3/10 8:13,2.9,2,2.9,2,6.5,3
2018/3/10 8:14,2.9,2,2.9,2,5.8,4
2018/3/10 8:15,2.8,2,2.8,2,4.1,1
2018/3/10 8:16,2.9,2,2.9,2,5.8,15
2018/3/10 8:17,3.1,2,3.1,2,7.7,1
2018/3/10 8:18,3.2,2,3.2,2,6.3,1
2018/3/10 8:19,3,2,3.2,2,7.8,1
2018/3/10 8:20,3,2,3,2,4.2,3
2018/3/10 8:21,3,2,3.1,2,3,3
2018/3/10 8:22,2.9,2,3,2,3.7,2
2018/3/10 8:23,2.6,2,2.9,2,2.6,1
2018/3/10 8:24,2.6,1,2.6,2,4.1,2
2018/3/10 8:25,2.6,1,2.6,2,3.6,1
2018/3/10 8:26,2.4,2,2.6,2,2.1,16
2018/3/10 8:27,2.2,2,2.4,2,3.5,3
2018/3/10 8:28,2.2,2,2.3,2,5.1,3
2018/3/10 8:29,2.1,2,2.1,2,4.2,1
2018/3/10 8:30,2.2,2,2.2,2,5.1,3
2018/3/10 8:31,2.2,2,2.2,2,4.7,15
2018/3/10 8:32,2.2,1,2.2,2,4.7,15
2018/3/10 8:33,2.3,1,2.3,2,4.1,16
2018/3/10 8:34,2.2,1,2.3,1,4.1,2
2018/3/10 8:35,2.3,2,2.3,1,4.7,2
2018/3/10 8:36,2.4,2,2.4,1,3.3,2
2018/3/10 8:37,2.2,1,2.4,2,1.4,2
2018/3/10 8:38,1.9,1,2.1,2,2.6,1
2018/3/10 8:39,2,1,2,2,4.2,1
2018/3/10 8:40,1.9,2,2,2,3.2,3
2018/3/10 8:41,2.2,2,2.2,2,8.1,2
2018/3/10 8:42,2.3,2,2.3,2,6.4,2
2018/3/10 8:43,2.3,2,2.3,2,4.4,3
2018/3/10 8:44,2.4,2,2.4,2,4.7,1
2018/3/10 8:45,2.3,2,2.4,2,4.4,1
2018/3/10 8:46,2.4,2,2.4,2,4.4,16
2018/3/10 8:47,2.6,2,2.6,2,5,15
2018/3/10 8:48,2.9,1,2.9,1,7.5,1
2018/3/10 8:49,3.1,1,3.1,1,7.4,1
2018/3/10 8:50,3.1,1,3.1,1,5,1
2018/3/10 8:51,2.8,1,3.1,1,4.5,16
2018/3/10 8:52,2.7,1,2.8,1,4.3,16
2018/3/10 8:53,2.6,1,2.7,1,3.5,1
2018/3/10 8:54,2.5,1,2.6,1,4.7,3
2018/3/10 8:55,2.6,1,2.6,1,5.6,2
2018/3/10 8:56,2.6,1,2.7,1,5.8,2
2018/3/10 8:57,2.6,1,2.6,1,6.5,16
2018/3/10 8:58,2.6,1,2.8,1,7.9,1
2018/3/10 8:59,2.5,1,2.6,1,4.8,16
2018/3/10 9:00,2.6,1,2.6,1,5.1,1
2018/3/10 9:01,2.8,1,2.8,1,8.5,1
2018/3/10 9:02,2.9,1,2.9,1,4.3,16
2018/3/10 9:03,3.1,1,3.1,1,8.9,15
2018/3/10 9:04,3.5,1,3.5,1,9.7,16
2018/3/10 9:05,3.6,16,3.6,1,6.1,1
2018/3/10 9:06,3.6,16,3.6,1,7,15
2018/3/10 9:07,4.2,16,4.2,16,13.8,16
2018/3/10 9:08,4.4,16,4.4,16,8.1,16
2018/3/10 9:09,4.6,16,4.6,16,8.4,16
2018/3/10 9:10,4.6,16,4.6,16,5.2,2
2018/3/10 9:11,4.6,16,4.7,16,5.4,2
2018/3/10 9:12,4.7,16,4.7,16,7.8,1
2018/3/10 9:13,4.7,16,4.8,16,7.2,1
2018/3/10 9:14,4.3,16,4.7,16,4.4,1
2018/3/10 9:15,4.1,16,4.3,16,5.4,16
2018/3/10 9:16,4.5,1,4.5,16,11.5,2
2018/3/10 9:17,4.2,1,4.5,16,9.7,2
2018/3/10 9:18,4.2,1,4.2,16,7.9,2
2018/3/10 9:19,4.3,1,4.3,16,8.7,2
2018/3/10 9:20,4.4,1,4.5,16,8.5,2
2018/3/10 9:21,4.2,2,4.3,16,4.8,1
2018/3/10 9:22,4.4,1,4.4,16,8.6,15
2018/3/10 9:23,4.5,1,4.5,16,9,16
2018/3/10 9:24,4.7,1,4.7,1,8.9,1
2018/3/10 9:25,5,1,5,1,7.5,2
2018/3/10 9:26,4.8,1,4.9,1,7.7,2
2018/3/10 9:27,4.5,1,4.7,1,7.2,16
2018/3/10 9:28,4.3,1,4.5,1,6.8,1
2018/3/10 9:29,4.1,1,4.3,1,7,2
2018/3/10 9:30,4,1,4.1,1,7.8,2
2018/3/10 9:31,4,1,4.1,1,3.7,1
2018/3/10 9:32,3.9,1,4,1,8.3,16
2018/3/10 9:33,3.8,1,3.9,1,9,16
2018/3/10 9:34,3.8,1,3.8,1,10.9,2
2018/3/10 9:35,3.8,1,3.8,1,8.9,1
2018/3/10 9:36,4,1,4,1,8.4,2
2018/3/10 9:37,4.1,1,4.1,1,9,16
2018/3/10 9:38,4.5,1,4.5,1,13.3,15
2018/3/10 9:39,4.6,1,4.6,1,6.9,1
2018/3/10 9:40,4.8,1,4.8,1,7.9,2
2018/3/10 9:41,5.1,1,5.1,1,9.7,1
2018/3/10 9:42,5.3,1,5.3,1,9.1,1
2018/3/10 9:43,5.1,1,5.3,1,6.3,16
2018/3/10 9:44,5.1,1,5.2,1,7,2
2018/3/10 9:45,5,1,5.1,1,7.7,2
2018/3/10 9:46,5.1,1,5.1,1,10.7,1
2018/3/10 9:47,5,1,5.1,1,7.8,1
2018/3/10 9:48,4.6,1,5,1,6.2,1
2018/3/10 9:49,4.5,1,4.6,1,5,1
2018/3/10 9:50,4.4,1,4.5,1,7.1,2
2018/3/10 9:51,4.3,1,4.4,1,6.2,1
2018/3/10 9:52,4.3,1,4.3,1,9.9,1
2018/3/10 9:53,4.4,1,4.4,1,12.2,1
2018/3/10 9:54,4.5,1,4.6,1,10.2,1
2018/3/10 9:55,4.8,1,4.8,1,11,1
2018/3/10 9:56,4.5,1,4.7,1,7.5,16
2018/3/10 9:57,4.5,1,4.5,1,6.4,2
2018/3/10 9:58,4.7,1,4.7,1,9.9,1
2018/3/10 9:59,5,1,5,1,10.2,1
2018/3/10 10:00,5.1,1,5.1,1,7.8,2
2018/3/10 10:01,5.3,1,5.3,1,8.7,1
2018/3/10 10:02,5.2,1,5.4,1,9.4,16
2018/3/10 10:03,5.1,1,5.2,1,7,16
2018/3/10 10:04,5,1,5.1,1,8.3,1
2018/3/10 10:05,4.7,1,5,1,6.2,2
2018/3/10 10:06,4.7,1,4.7,1,7.7,1
2018/3/10 10:07,4.5,1,4.7,1,4.8,2
2018/3/10 10:08,4,1,4.4,1,3.7,15
2018/3/10 10:09,3.4,1,4,1,1.5,11
2018/3/10 10:10,3,16,3.4,1,5.7,15
2018/3/10 10:11,2.9,16,3,1,6.7,15
2018/3/10 10:12,2.9,16,2.9,1,8.7,1
2018/3/10 10:13,3.1,16,3.1,1,8.5,2
2018/3/10 10:14,3.1,1,3.1,1,7.8,1
2018/3/10 10:15,3.2,1,3.2,1,8.5,2
2018/3/10 10:16,3.2,1,3.3,1,6.9,1
2018/3/10 10:17,3.5,1,3.5,1,8.2,16
2018/3/10 10:18,4,1,4,1,8.7,2
2018/3/10 10:19,4.4,1,4.4,1,7,2
2018/3/10 10:20,4.8,1,4.8,1,8.9,2
2018/3/10 10:21,4.9,2,4.9,2,8.2,2
2018/3/10 10:22,4.7,2,4.9,2,6.7,2
2018/3/10 10:23,4.6,2,4.7,2,7,1
2018/3/10 10:24,4.7,2,4.8,2,9.9,2
2018/3/10 10:25,4.8,1,4.8,2,8.2,16
2018/3/10 10:26,4.8,1,4.8,2,6.8,1
2018/3/10 10:27,4.6,1,4.8,2,5,16
2018/3/10 10:28,4.3,1,4.5,2,7.7,1
2018/3/10 10:29,4.5,2,4.5,2,10.6,1
2018/3/10 10:30,4.6,2,4.7,2,9.4,2
2018/3/10 10:31,4.6,1,4.6,2,7.8,1
2018/3/10 10:32,4.6,1,4.6,2,7.7,16
2018/3/10 10:33,4.7,1,4.7,2,8.3,1
2018/3/10 10:34,4.6,1,4.7,2,9,1
2018/3/10 10:35,4.6,1,4.6,1,7,1
2018/3/10 10:36,4.7,1,4.7,1,7.5,1
2018/3/10 10:37,5,1,5,1,9.5,2
2018/3/10 10:38,5.4,1,5.4,1,11.4,2
2018/3/10 10:39,5.1,1,5.3,1,8.9,15
2018/3/10 10:40,4.8,1,5.1,1,6.5,16
2018/3/10 10:41,4.7,1,4.8,1,5.5,3
2018/3/10 10:42,4.8,1,4.8,1,6.9,2
2018/3/10 10:43,4.6,1,4.7,1,5.5,2
2018/3/10 10:44,4.5,1,4.6,1,7.4,1
2018/3/10 10:45,4.4,1,4.4,1,7.6,1
2018/3/10 10:46,4.3,2,4.4,1,6.5,2
2018/3/10 10:47,4.3,2,4.4,1,7.9,1
2018/3/10 10:48,3.8,2,4.2,1,4.7,2
2018/3/10 10:49,3.7,2,3.7,1,6.3,2
2018/3/10 10:50,3.6,2,3.7,1,6.2,2
2018/3/10 10:51,3.9,2,3.9,1,7.8,2
2018/3/10 10:52,3.9,2,3.9,1,7.5,2
2018/3/10 10:53,4,2,4,1,6.1,1
2018/3/10 10:54,3.9,2,3.9,1,7.2,2
2018/3/10 10:55,3.9,1,4,1,5.4,2
2018/3/10 10:56,3.8,1,3.9,2,4.1,2
2018/3/10 10:57,3.5,1,3.8,2,3.9,1
2018/3/10 10:58,3.4,2,3.5,2,3.6,1
2018/3/10 10:59,3.3,2,3.4,2,4.5,2
2018/3/10 11:00,3.6,1,3.6,2,6.8,1
2018/3/10 11:01,3.4,1,3.5,2,5.5,1
2018/3/10 11:02,3.2,1,3.4,2,4.7,2
2018/3/10 11:03,3,1,3.2,2,4.8,16
2018/3/10 11:04,3.2,1,3.2,2,6.3,15
2018/3/10 11:05,3,1,3.1,1,5.8,1
2018/3/10 11:06,3,1,3,1,7.4,16
2018/3/10 11:07,3.1,1,3.1,1,9.2,14
2018/3/10 11:08,3.3,16,3.4,1,9,15
2018/3/10 11:09,3.2,16,3.3,1,4.5,1
2018/3/10 11:10,3.1,16,3.2,1,5,3